Regional Weather Roundup
Issued by NWS

Home | Current Version | Previous Version | Text Only | Print | Product List | Glossary Off
Versions: 1 2 3 4 5 6 7 8 9 10 11 12 13 14 15 16 17 18 19 20 21 22 23 24 25 26 27 28 29 30 31 32 33 34 35 36 37 38 39 40 41 42 43 44 45 46 47 48 49 50

000
ASUS43 KLSX 230207
RWRMO

WEATHER SUMMARY FOR MISSOURI
NATIONAL WEATHER SERVICE SPRINGFIELD MO
900 PM CDT WED OCT 22 2014

NOTE: "FAIR" INDICATES FEW OR NO CLOUDS BELOW 12,000 FEET WITH NO
       SIGNIFICANT WEATHER AND/OR OBSTRUCTIONS TO VISIBILITY.
       CURRENT SKY AND/OR WEATHER CONDITIONS ARE NOT AVAILABLE FOR
       CHILLICOTHE AND FARMINGTON.

MOZ001>031-035>038-043-044-053-054-230300-
...NORTHERN AND WESTERN MISSOURI...

CITY           SKY/WX    TMP DP  RH WIND       PRES   REMARKS
KANSAS CTY INT PTCLDY    62  52  69 SE10      30.11R
KANSAS C DTWN  PTCLDY    66  51  58 SE10      30.10S
LEE`S SUMMIT   PTCLDY    63  50  62 SE8       30.13R
ST JOSEPH      PTCLDY    64  52  64 SE9       30.09S
CHILLICOTHE      N/A     60  46  59 SE7       30.15F
KIRKSVILLE     CLEAR     49  42  77 SE9       30.19S

$$
MOZ066>068-077>081-088>096-101>105-230300-
...SOUTHWEST MISSOURI...

CITY           SKY/WX    TMP DP  RH WIND       PRES   REMARKS
SPRINGFIELD    CLEAR     55  47  74 SE9       30.17S
JOPLIN         PTCLDY    62  53  72 SE8       30.13S

$$
MOZ032>034-039>042-045>050-055>058-069>072-230300-
...CENTRAL MISSOURI...

CITY           SKY/WX    TMP DP  RH WIND       PRES   REMARKS
COLUMBIA       CLEAR     53  42  66 E8        30.19S
JEFFERSON CITY CLEAR     50  42  74 SE6       30.19R
ROLLA          CLEAR     50  38  63 SE7       30.19R
SEDALIA        CLEAR     56  47  71 SE8       30.17S
WHITEMAN AFB   PTCLDY    56  47  72 SE7       30.14S
OSAGE BEACH    CLEAR     52  45  76 SE3       30.18S

$$
MOZ051-052-059>065-230300-
...EAST CENTRAL MISSOURI...

CITY           SKY/WX    TMP DP  RH WIND       PRES   REMARKS
ST LOUIS INTL  PTCLDY    52  41  66 SE6       30.23
SPIRIT OF STL  CLEAR     45  41  86 CALM      30.22R
ST CHARLES     CLEAR     47  41  80 E6        30.22R

$$
MOZ072>076-082>087-097>100-106>115-230300-
...SOUTH CENTRAL AND SOUTHEAST MISSOURI...

CITY           SKY/WX    TMP DP  RH WIND       PRES   REMARKS
CAPE GIRARDEAU CLEAR     49  42  77 CALM      30.22R
FARMINGTON     CLEAR     45  39  81 CALM      30.24R
POPLAR BLUFF   CLEAR     47  42  83 CALM      30.20R
WEST PLAINS    CLEAR     48  41  76 CALM      30.22R

$$



USA.gov is the U.S. government's official web portal to all federal, state and local government web resources and services.